#timestamp,LO_Frequency,Hit,StdDev 
1583139615.5,286046999.3,P
1583139635.3,286046998.9,P
1583139655.1,286046996.9,Y
1583139675.9,286046999.4,P
1583139695.7,286046996.7,P
1583139715.5,286046999.0,N
1583139735.4,286046999.5,N
1583139755.2,286046996.5,Y
1583139775.1,286046998.3,P
1583139776.0,286046998.3,P
1583139795.8,286046999.6,N
1583139815.6,286046996.9,Y
1583139835.5,286046999.5,P
1583139855.3,286047000.9,N
1583139875.1,286046998.5,N
1583139895.9,286047000.7,N
1583139915.7,286046996.5,Y
1583139935.6,286047011.9,P
1583139955.4,286046997.5,N
1583139975.2,286046997.8,N
1583139995.1,286046998.0,N
1583139996.0,286046998.0,N
1583140015.8,286046995.6,N
1583140035.7,286046993.8,N
1583140055.5,286046994.5,N
1583140075.3,286046993.6,N
1583140095.2,286046994.7,N
1583140115.9,286046994.7,N
1583140135.7,286046994.3,N
1583140155.6,286046992.4,N
1583140175.4,286046991.8,N
1583140195.3,286046994.3,N
1583140215.1,286046993.0,N
1583140216.0,286046993.0,N
1583140235.8,286046992.9,N
1583140255.7,286046993.1,N
1583140275.5,286046990.7,N
1583140295.3,286046993.1,N
1583140315.2,286046993.2,N
1583140335.0,286046991.5,N
1583140335.9,286046991.5,N
1583140355.8,286046990.8,N
1583140375.6,286046989.7,N
1583140395.4,286046989.5,N
1583140415.3,286046989.2,N
1583140435.1,286046989.7,N
1583140436.0,286046989.7,N
1583140455.8,286046989.1,N
1583140475.7,286046988.8,Y
1583140495.5,286046997.8,P
1583140515.4,286046997.8,N
1583140535.2,286046997.3,N
1583140555.0,286046995.4,N
1583140555.9,286046995.4,N
1583140575.8,286046995.9,N
1583140595.6,286046995.9,N
1583140615.4,286046993.4,Y
1583140635.3,286046999.5,P
1583140655.1,286046999.4,N
1583140675.9,286046999.3,N
1583140695.7,286046998.9,N
1583140715.5,286046999.0,N
1583140735.4,286046996.7,N
1583140755.2,286046997.1,N
1583140775.1,286046996.7,N
1583140776.0,286046996.7,N
1583140795.8,286046996.5,N
1583140815.6,286046999.6,N
1583140835.5,286046999.1,N
1583140855.3,286046999.2,N
1583140875.1,286046997.6,N
1583140895.9,286046997.3,N
1583140915.7,286046997.4,N
1583140935.6,286046995.4,Y
1583140955.4,286046999.0,P
1583140975.2,286046999.3,N
1583140995.1,286046998.5,N
1583140996.0,286046998.5,Y
1583141015.8,286047000.9,P
1583141035.7,286047000.8,N
1583141055.5,286047000.5,N
1583141075.3,286046998.6,N
1583141095.2,286046999.0,N
1583141115.0,286046999.6,N
1583141115.9,286046999.6,N
1583141135.7,286046999.1,N
1583141155.6,286046999.1,N
1583141175.4,286046999.1,N
1583141195.3,286046999.0,N
1583141215.1,286046999.0,N
1583141216.0,286046999.0,N
1583141235.8,286046999.1,N
1583141255.7,286046996.7,Y
1583141275.5,286046999.1,P
1583141295.4,286046999.3,P
1583141315.2,286046997.2,P
1583141335.0,286046996.7,Y
1583141335.9,286046996.7,P
1583141355.8,286046999.5,N
1583141375.6,286046999.6,N
1583141395.4,286046999.1,N
1583141415.3,286046996.7,Y
1583141465.2,286046999.2,E
1583141475.1,286046998.7,N
1583141476.0,286046998.7,P
1583141495.8,286046998.1,P
1583141515.7,286047001.0,Y
1583141535.5,286047001.6,P
1583141555.3,286046999.7,N
1583141575.2,286047000.1,N
1583141595.0,286046999.7,N
1583141595.9,286046999.7,N
1583141615.7,286046999.8,N
1583141635.6,286047000.4,N
1583141655.4,286047001.1,N
1583141675.3,286047000.6,N
1583141695.1,286047000.0,N
1583141696.0,286047000.0,N
1583141715.8,286047000.8,N
1583141735.7,286046998.3,N
1583141755.5,286046999.0,N
1583141775.3,286046999.3,N
1583141795.2,286046996.5,Y
1583141815.0,286046996.6,P
1583141815.9,286046996.6,N
1583141835.8,286046996.7,N
1583141855.6,286046999.4,N
1583141875.4,286046997.3,N
1583141895.3,286046997.6,N
1583141915.1,286046998.0,N
1583141935.9,286046995.3,Y
1583141955.7,286046999.5,P
1583141975.5,286046997.2,P
1583141995.4,286046996.6,P
1583142015.2,286046996.9,N
1583142035.0,286046999.4,N
1583142035.9,286046999.4,N
1583142055.8,286046997.5,N
1583142075.6,286046998.0,N
1583142095.5,286046994.9,Y
1583142115.3,286046999.0,P
1583142135.1,286046998.8,N
1583142155.9,286046999.0,N
1583142175.7,286046999.0,N
1583142195.5,286046999.5,N
1583142215.4,286046998.0,Y
1583142235.2,286046999.6,P
1583142255.1,286046997.8,P
1583142256.0,286046997.8,P
1583142275.8,286046995.4,Y
1583142295.6,286046999.6,P
1583142315.5,286046999.6,N
1583142335.3,286046997.3,P
1583142355.2,286046996.8,Y
1583142375.9,286046999.1,P
1583142395.7,286046999.0,P
1583142415.6,286046999.1,P
1583142435.4,286046997.0,Y
1583142455.2,286046997.0,P
1583142475.1,286046999.5,N
1583142476.0,286046999.5,N
1583142495.8,286046996.6,Y
1583142515.7,286046998.1,P
1583142535.5,286046998.6,P
1583142555.3,286046999.5,N
1583142575.2,286046996.7,Y
1583142595.0,286046999.0,P
1583142595.9,286046999.0,P
1583142615.7,286046999.4,P
1583142635.6,286046999.3,Y
1583142655.4,286046999.2,P
1583142675.3,286046996.6,P
1583142695.1,286046999.2,N
1583142715.8,286046998.4,N
1583142735.7,286046999.6,N
1583142755.5,286046997.0,Y
1583142775.4,286046998.4,P
1583142795.2,286046998.9,P
1583142815.0,286046999.0,P
1583142815.9,286046999.0,Y
1583142835.8,286047001.0,P
1583142855.6,286046998.4,N
1583142875.4,286046998.7,N
1583142895.3,286046999.2,N
1583142915.1,286046998.9,N
1583142935.9,286046998.9,N
1583142955.7,286046999.1,N
1583142975.5,286046996.9,Y
1583142995.4,286046996.5,P
1583143015.2,286046997.1,N
1583143035.0,286046997.3,N
1583143036.0,286046997.3,N
1583143055.8,286046997.1,Y
1583143075.6,286047001.2,P
1583143095.5,286046998.5,N
1583143115.3,286046999.6,N
1583143135.1,286046996.6,N
1583143155.9,286046997.0,N
1583143175.7,286046997.3,N
1583143195.6,286046996.6,N
